This demonstration page uses our WeatherBlox Daily Observations layout. Learn more.

Hourly Observations for November 17, 2019

Temp ( °F °C ) Dew Point ( °F °C ) Humidity (%) Winds ( mph kmh ) Pressure ( in mb ) Visibility ( mi km ) Precip ( " mm )
12:15 am 00:15 Cloudy 46 7.8 37 2.8 71 71 NW 9 15 30.12 1020 10 16.09344 0 0
12:35 am 00:35 Cloudy 47 8.2 37 3 70 70 NW 10 17 30.12 1020 10 16.09344 0 0
12:55 am 00:55 Cloudy 47 8.5 38 3.2 70 70 NNW 13 20 30.12 1020 10 16.09344 0 0
1:15 am 01:15 Cloudy 47 8.3 38 3.2 71 71 NNW 13 20 30.12 1020 10 16.09344 0 0
1:35 am 01:35 Partly Cloudy 45 7.2 37 2.7 73 73 NNW 12 19 30.12 1020 10 16.09344 0 0
1:55 am 01:55 Clear 44 6.8 37 2.5 74 74 NW 8 13 30.12 1020 10 16.09344 0 0
2:15 am 02:15 Clear 41 5.2 35 1.7 78 78 NW 6 9 30.15 1021 10 16.09344 0 0
2:35 am 02:35 Clear 40 4.4 35 1.5 82 82 NNW 7 11 30.15 1021 10 16.09344 0 0
2:55 am 02:55 Clear 37 2.6 33 0.4 86 86 WNW 6 9 30.18 1022 10 16.09344 0 0
3:15 am 03:15 Clear 38 3.2 33 0.7 84 84 NW 9 15 30.18 1022 10 16.09344 0 0
3:35 am 03:35 Clear 35 1.5 32 0 90 90 NW 7 11 30.18 1022 10 16.09344 0 0
3:55 am 03:55 Clear 37 2.5 33 0.7 88 88 WNW 7 11 30.18 1022 10 16.09344 0 0
4:15 am 04:15 Clear 34 1.3 32 -0.2 90 90 NW 10 17 30.18 1022 10 16.09344 0 0
4:35 am 04:35 Clear 37 2.7 34 1 89 89 NW 10 17 30.18 1022 10 16.09344 0 0
4:55 am 04:55 Clear 39 4 34 1 81 81 NW 14 22 30.15 1021 10 16.09344 0 0
5:15 am 05:15 Clear 37 2.8 33 0.4 84 84 NW 10 17 30.18 1022 10 16.09344 0 0
5:35 am 05:35 Clear 37 3 33 0.3 83 83 NW 12 19 30.18 1022 10 16.09344 0 0
5:55 am 05:55 Clear 37 2.5 32 0 84 84 NW 9 15 30.18 1022 10 16.09344 0 0
6:15 am 06:15 Clear 35 1.6 31 -0.3 87 87 NW 8 13 30.18 1022 10 16.09344 0 0
6:35 am 06:35 Clear 33 0.7 31 -0.7 90 90 WNW 9 15 30.18 1022 10 16.09344 0 0
6:55 am 06:55 Clear 33 0.5 30 -1.1 89 89 WNW 6 9 30.18 1022 10 16.09344 0 0
7:15 am 07:15 Clear 32 0 29 -1.5 90 90 NW 7 11 30.21 1023 10 16.09344 0 0
7:35 am 07:35 Sunny 31 -0.3 29 -1.8 90 90 W 5 7 30.21 1023 10 16.09344 0 0
7:55 am 07:55 Sunny 32 0 30 -1.2 92 92 W 7 11 30.24 1024 10 16.09344 0 0
8:15 am 08:15 Sunny 33 0.7 31 -0.7 90 90 W 7 11 30.24 1024 10 16.09344 0 0
8:35 am 08:35 Sunny 34 1.2 31 -0.5 89 89 W 7 11 30.21 1023 10 16.09344 0 0
8:55 am 08:55 Sunny 36 2.1 32 -0.1 86 86 WNW 7 11 30.21 1023 10 16.09344 0 0
9:15 am 09:15 Sunny 38 3.6 33 0.3 79 79 NW 9 15 30.21 1023 10 16.09344 0 0
9:35 am 09:35 Sunny 40 4.5 33 0.4 75 75 WNW 8 13 30.18 1022 10 16.09344 0 0
9:55 am 09:55 Sunny 42 5.5 33 0.4 70 70 NW 8 13 30.15 1021 10 16.09344 0 0
10:15 am 10:15 Sunny 44 6.7 33 0.3 64 64 NW 8 13 30.15 1021 10 16.09344 0 0
10:35 am 10:35 Sunny 46 7.5 33 0.4 61 61 NW 9 15 30.12 1020 10 16.09344 0 0
10:55 am 10:55 Sunny 48 8.7 33 0.6 57 57 WNW 7 11 30.12 1020 10 16.09344 0 0
11:15 am 11:15 Sunny 49 9.2 33 0.3 54 54 WNW 7 11 30.12 1020 10 16.09344 0 0
11:35 am 11:35 Sunny 51 10.4 33 0.3 50 50 WNW 7 11 30.06 1018 10 16.09344 0 0
11:55 am 11:55 Sunny 51 10.8 32 0 48 48 WNW 8 13 30.06 1018 10 16.09344 0 0
12:15 pm 12:15 Sunny 52 11.2 31 -0.5 45 45 WNW 8 13 30.06 1018 10 16.09344 0 0
12:35 pm 12:35 Sunny 53 11.9 30 -0.9 41 41 WNW 8 13 30.03 1017 10 16.09344 0 0
12:55 pm 12:55 Sunny 55 12.7 30 -1.2 38 38 NW 9 15 30.03 1017 10 16.09344 0 0
1:15 pm 13:15 Sunny 55 13 30 -1.2 38 38 NW 8 13 30 1016 10 16.09344 0 0
1:35 pm 13:35 Sunny 56 13.1 30 -1.3 37 37 NW 9 15 29.97 1015 10 16.09344 0 0
1:55 pm 13:55 Sunny 56 13.6 29 -1.6 35 35 WNW 9 15 29.97 1015 10 16.09344 0 0
2:15 pm 14:15 Sunny 57 13.7 29 -1.9 34 34 NW 12 19 29.97 1015 10 16.09344 0 0
2:35 pm 14:35 Sunny 57 14 28 -2 33 33 WNW 9 15 29.94 1014 10 16.09344 0 0
2:55 pm 14:55 Sunny 57 13.8 28 -2 34 34 WNW 8 13 29.94 1014 10 16.09344 0 0
3:15 pm 15:15 Sunny 57 13.9 29 -1.6 35 35 W 5 7 29.94 1014 10 16.09344 0 0
3:35 pm 15:35 Sunny 57 13.8 29 -1.6 35 35 WNW 8 13 29.94 1014 10 16.09344 0 0
3:55 pm 15:55 Sunny 56 13.6 29 -1.5 35 35 WNW 9 15 29.94 1014 10 16.09344 0 0
4:15 pm 16:15 Sunny 56 13.5 29 -1.5 36 36 WNW 10 17 29.94 1014 10 16.09344 0 0
4:35 pm 16:35 Sunny 53 11.7 29 -1.6 40 40 W 7 11 29.97 1015 10 16.09344 0 0
4:55 pm 16:55 Sunny 50 10.2 28 -2 43 43 W 8 13 29.94 1014 10 16.09344 0 0
5:15 pm 17:15 Sunny 49 9.3 28 -2.2 45 45 W 7 11 29.97 1015 10 16.09344 0 0
5:35 pm 17:35 Clear 47 8.1 28 -2.4 48 48 W 6 9 29.97 1015 10 16.09344 0 0
5:55 pm 17:55 Clear 46 7.9 28 -2.5 48 48 WSW 3 6 29.97 1015 10 16.09344 0 0
6:15 pm 18:15 Clear 45 7.2 28 -2.5 50 50 WSW 3 6 29.97 1015 10 16.09344 0 0
6:35 pm 18:35 Clear 44 6.8 28 -2.3 53 53 SW 6 9 29.97 1015 10 16.09344 0 0
6:55 pm 18:55 Clear 44 6.4 28 -2.5 53 53 SW 5 7 29.97 1015 10 16.09344 0 0
7:15 pm 19:15 Clear 44 6.5 28 -2.5 53 53 SW 5 7 29.97 1015 10 16.09344 0 0
7:35 pm 19:35 Clear 42 5.7 27 -2.6 56 56 WSW 5 7 29.97 1015 10 16.09344 0 0
7:55 pm 19:55 Clear 43 6 28 -2.5 55 55 SW 7 11 29.94 1014 10 16.09344 0 0
8:15 pm 20:15 Clear 44 6.5 28 -2.2 54 54 SW 6 9 29.94 1014 10 16.09344 0 0
8:35 pm 20:35 Clear 44 6.4 28 -2.2 55 55 SW 5 7 29.94 1014 10 16.09344 0 0
8:55 pm 20:55 Clear 43 6.1 28 -2.1 56 56 SW 6 9 29.94 1014 10 16.09344 0 0
9:15 pm 21:15 Clear 44 6.6 28 -2.2 54 54 SW 5 7 29.94 1014 10 16.09344 0 0
9:35 pm 21:35 Clear 43 6.1 28 -2.2 56 56 SW 6 9 29.91 1013 10 16.09344 0 0
9:55 pm 21:55 Clear 42 5.3 28 -2.4 58 58 SW 5 7 29.91 1013 10 16.09344 0 0
10:15 pm 22:15 Partly Cloudy 41 5 28 -2.5 59 59 SW 5 7 29.91 1013 10 16.09344 0 0
10:35 pm 22:35 Mostly Cloudy 42 5.4 28 -2.3 58 58 SW 6 9 29.91 1013 10 16.09344 0 0
10:55 pm 22:55 Cloudy 42 5.7 28 -2 58 58 SW 7 11 29.88 1012 10 16.09344 0 0
11:15 pm 23:15 Cloudy 44 6.5 29 -1.8 56 56 SW 5 7 29.88 1012 10 16.09344 0 0
11:35 pm 23:35 Cloudy 45 7.2 29 -1.6 54 54 SW 7 11 29.85 1011 10 16.09344 0 0
11:55 pm 23:55 Cloudy 45 7 29 -1.6 55 55 SW 6 9 29.85 1011 10 16.09344 0 0

Powered by AerisWeather